www.pogodaiklimat.ru

Погода и климат >> Архив погоды >> Великобритания >> Aberdaron


ПОГОДА в Aberdaron

  • Прогноз погоды в Aberdaron
  • Монитор погоды в Aberdaron
  • Климат города

АРХИВ ПОГОДЫ в Aberdaron

Время (UTC), дата Ветер
(напр.,м/с)
 
Видим.   Явления Облачность Т
(С)
Тd
(С)
f
(%)
Тe
(С)
Тes
(С)
Комфортность P
(гПа)
Po
(гПа)
Тmin
(С)
Tmax
(С)
R
(мм)
R24
(мм)
S
(см)
04 17.08 ЮЗ 6 100 м н/о +14.5 +14.5 100 +12 +12 1007.3 996.0
05 17.08 З 4 100 м н/о +14.4 +14.4 100 +13 +13 1007.5 996.2
06 17.08 З 4 200 м н/о +14.5 +14.5 100 +13 +13 1008.1 996.8 +14.1 12
07 17.08 З 3 5000 м н/о +14.8 +14.8 100 +14 +14 1008.5 997.2
08 17.08 ЮЗ 8 800 м н/о +14.3 +14.3 100 +12 +12 1009.0 997.7
09 17.08 ЮЗ 8 14 км н/о +13.4 +13.4 100 +11 +11 1009.4 998.1
10 17.08 ЮЗ 9 25 км н/о +14.4 +14.4 100 +12 +12 1009.6 998.2
11 17.08 ЮЗ 9 22 км н/о +15.5 +14.5 94 +13 +13 1009.5 998.3
12 17.08 Ю 9 20 км н/о +15.4 +14.2 93 +13 +13 1009.6 998.3
13 17.08 Ю 10
{13}
19 км н/о +16.9 +15.6 92 +15 +15 1009.3 998.1
14 17.08 ЮЗ 12
{15}
17 км н/о +16.8 +15.4 91 +15 +15 1009.0 997.8
15 17.08 ЮЗ 12
{15}
13 км н/о +16.5 +15.3 93 +14 +14 1008.8 997.6
16 17.08 ЮЗ 13
{16}
13 км н/о +16.2 +14.9 92 +14 +14 1008.8 997.5
17 17.08 ЮЗ 14
{17}
14 км н/о +15.9 +14.6 92 +13 +13 1008.3 997.1
18 17.08 ЮЗ 14
{16}
11 км н/о +15.2 +14.5 96 +12 +12 1008.1 996.8 +17.1
19 17.08 ЮЗ 12
{17}
13 км н/о +14.8 +14.0 95 +12 +12 1007.8 996.5
20 17.08 ЮЗ 13
{17}
13 км н/о +14.7 +14.1 96 +12 +12 1007.7 996.4
21 17.08 ЮЗ 13
{17}
10 км н/о +14.6 +14.1 97 +11 +11 1007.2 995.9
22 17.08 ЮЗ 12
{20}
23 км н/о +13.3 +12.9 97 +10 +10 1007.0 995.7
23 17.08 ЮЗ 15
{20}
23 км н/о +13.9 +13.0 94 +10 +10 1007.0 995.7
00 18.08 ЮЗ 13
{21}
9000 м н/о +14.1 +13.3 95 +11 +11 1006.9 995.6 1
01 18.08 З 11
{17}
4300 м н/о +12.8 +12.1 96 +9 +9 1007.0 995.7
02 18.08 З 10
{13}
35 км н/о +12.7 +11.7 94 +9 +9 1007.3 995.9
03 18.08 З 11
{14}
30 км н/о +12.4 +10.9 91 +9 +9 1007.8 996.4
04 18.08 З 10
{15}
30 км н/о +12.2 +10.8 91 +8 +8 1008.0 996.6
05 18.08 З 12
{15}
35 км н/о +12.0 +10.3 89 +8 +8 1008.1 996.7
06 18.08 З 10 30 км н/о +11.9 +10.1 89 +8 +8 1008.4 997.0 +11.9 3
07 18.08 З 11
{14}
35 км н/о +12.4 +10.4 88 +9 +9 1008.5 997.2
08 18.08 З 11
{14}
35 км н/о +12.9 +10.7 86 +9 +9 1008.9 997.5
09 18.08 З 12
{14}
35 км н/о +13.1 +10.5 84 +10 +10 1009.1 997.7
10 18.08 З 10
{14}
45 км н/о +13.6 +10.5 82 +11 +11 1009.4 998.0
11 18.08 ЮЗ 10
{13}
45 км н/о +14.2 +11.1 82 +11 +11 1009.3 998.0
12 18.08 ЮЗ 11
{13}
45 км н/о +14.3 +10.8 79 +11 +11 1009.2 997.9
13 18.08 ЮЗ 10
{14}
40 км н/о +14.8 +11.5 81 +12 +12 1008.9 997.6
14 18.08 ЮЗ 12
{15}
40 км н/о +14.9 +11.5 80 +12 +12 1008.8 997.5
15 18.08 ЮЗ 12
{19}
30 км н/о +13.5 +10.5 82 +10 +10 1008.7 997.3
16 18.08 ЮЗ 14
{20}
10 км н/о +11.5 +10.9 96 +7 +7 1008.8 997.3
17 18.08 ЮЗ 10
{16}
8000 м н/о +10.6 +10.0 96 +6 +6 1008.3 996.8
18 18.08 В 2 4800 м н/о +10.8 +10.5 98 +9 +9 1007.9 996.5 +15.1 6
19 18.08 З 9
{13}
45 км н/о +12.3 +12.0 98 +9 +9 1008.7 997.3
20 18.08 З 8
{13}
50 км н/о +12.2 +10.9 92 +9 +9 1010.1 998.7
21 18.08 З 9 45 км н/о +13.2 +11.6 90 +10 +10 1011.2 999.8
22 18.08 З 12
{16}
50 км н/о +13.6 +11.4 87 +10 +10 1012.0 1000.6
23 18.08 З 11
{16}
40 км н/о +12.8 +10.8 88 +9 +9 1013.0 1001.6
00 19.08 З 13
{17}
35 км н/о +12.6 +10.3 86 +9 +9 1013.7 1002.2 0.4
01 19.08 З 12
{15}
35 км н/о +12.4 +9.9 85 +9 +9 1013.9 1002.5
02 19.08 З 10
{15}
40 км н/о +12.2 +9.8 85 +9 +9 1014.4 1002.9
03 19.08 З 11
{14}
35 км н/о +12.2 +10.2 88 +8 +8 1015.0 1003.5
04 19.08 З 12
{15}
28 км н/о +12.0 +10.6 91 +8 +8 1014.8 1003.4
05 19.08 З 11
{16}
30 км н/о +12.3 +10.2 87 +9 +9 1015.1 1003.7
06 19.08 З 12 35 км н/о +12.3 +10.2 87 +8 +8 1015.6 1004.1 +10.8 0.4
07 19.08 З 11
{15}
30 км н/о +12.7 +10.6 87 +9 +9 1016.0 1004.6
08 19.08 З 13
{15}
35 км н/о +12.9 +10.6 86 +9 +9 1016.1 1004.6
09 19.08 З 11
{16}
35 км н/о +13.2 +10.8 85 +10 +10 1016.7 1005.3
10 19.08 З 13
{16}
40 км н/о +13.4 +10.5 83 +10 +10 1017.1 1005.6
11 19.08 З 11
{17}
30 км н/о +13.9 +10.9 82 +11 +11 1017.5 1006.1
12 19.08 З 11
{14}
35 км н/о +13.9 +10.8 82 +11 +11 1017.9 1006.5
13 19.08 З 8
{13}
40 км н/о +15.1 +12.0 82 +13 +13 1018.1 1006.7
14 19.08 З 10
{14}
45 км н/о +14.3 +11.1 81 +12 +12 1018.6 1007.2
15 19.08 З 10
{13}
35 км н/о +14.9 +11.3 79 +12 +12 1019.0 1007.6
16 19.08 ЮЗ 9
{14}
30 км н/о +14.8 +12.5 86 +12 +12 1018.9 1007.5
17 19.08 З 12
{13}
50 км н/о +14.1 +10.2 77 +11 +11 1019.3 1007.8
18 19.08 З 9
{13}
50 км н/о +14.7 +10.6 76 +12 +12 1019.5 1008.1 +15.7
19 19.08 З 8
{13}
40 км н/о +14.2 +11.6 84 +12 +12 1020.0 1008.5
20 19.08 З 9 40 км н/о +13.6 +10.6 82 +11 +11 1020.3 1008.8
21 19.08 З 10
{13}
45 км н/о +13.3 +10.1 81 +10 +10 1020.8 1009.3
22 19.08 З 9
{13}
40 км н/о +12.9 +10.2 84 +10 +10 1021.4 1009.9
23 19.08 З 8 50 км н/о +12.5 +9.7 83 +9 +9 1021.6 1010.0
00 20.08 З 8 50 км н/о +12.3 +9.4 82 +9 +9 1021.8 1010.3
01 20.08 З 6 50 км н/о +11.8 +10.0 89 +9 +9 1021.9 1010.4
02 20.08 З 5 50 км н/о +11.9 +9.9 88 +9 +9 1022.1 1010.5
03 20.08 З 3 50 км н/о +10.7 +8.9 89 +9 +9 1022.3 1010.7
04 20.08 З 4 50 км н/о +10.7 +9.3 91 +8 +8 1022.3 1010.7
05 20.08 З 3 50 км н/о +11.7 +10.0 89 +10 +10 1022.1 1010.5
06 20.08 З 3 50 км н/о +11.5 +9.7 89 +10 +10 1022.2 1010.6 +10.5
07 20.08 ЮЗ 2 50 км н/о +12.5 +10.3 86 +12 +12 1022.7 1011.1
08 20.08 Ю 3 50 км н/о +13.3 +10.5 83 +12 +12 1023.0 1011.5
09 20.08 Ю 4 50 км н/о +13.9 +10.6 80 +13 +13 1023.1 1011.6
10 20.08 Ю 4 50 км н/о +14.2 +10.6 79 +13 +13 1023.0 1011.5
11 20.08 Ю 5 50 км н/о +14.4 +11.7 84 +13 +13 1022.8 1011.4
12 20.08 Ю 5 50 км н/о +14.6 +11.8 83 +13 +13 1022.7 1011.3
13 20.08 Ю 5 26 км н/о +14.1 +12.2 88 +12 +12 1022.8 1011.3
14 20.08 ЮВ 4 4900 м н/о +13.3 +12.8 97 +11 +11 1021.8 1010.3
15 20.08 ЮВ 5 9000 м н/о +13.5 +13.4 99 +11 +11 1021.6 1010.1
16 20.08 ЮВ 6 2700 м н/о +13.7 +13.7 100 +11 +11 1021.2 1009.8
17 20.08 В 8 3000 м н/о +13.5 +13.5 100 +11 +11 1020.7 1009.3
18 20.08 В 7 1800 м н/о +13.4 +13.4 100 +11 +11 1020.2 1008.8 +14.7 10
19 20.08 В 9 16 км н/о +13.7 +13.7 100 +11 +11 1019.7 1008.2
20 20.08 В 9
{13}
40 км н/о +13.8 +13.8 100 +11 +11 1019.4 1007.9
21 20.08 В 7 50 км н/о +14.0 +13.8 99 +12 +12 1019.9 1008.4
22 20.08 В 5 50 км н/о +14.3 +13.7 96 +13 +13 1020.3 1008.8
23 20.08 В 5 50 км н/о +14.4 +13.8 96 +13 +13 1020.2 1008.8
00 21.08 В 5 50 км н/о +14.5 +13.7 95 +13 +13 1020.2 1008.7 2
01 21.08 В 6 50 км н/о +14.4 +14.0 97 +12 +12 1020.2 1008.7
02 21.08 ЮВ 6 50 км н/о +14.7 +14.1 96 +13 +13 1020.1 1008.6
03 21.08 ЮВ 5 35 км н/о +14.6 +14.4 99 +13 +13 1019.7 1008.3
04 21.08 ЮВ 5 50 км н/о +14.7 +14.3 97 +13 +13 1019.7 1008.3
05 21.08 ЮВ 6 50 км н/о +14.7 +14.5 99 +13 +13 1019.8 1008.4
06 21.08 ЮВ 5 35 км н/о +14.8 +14.5 98 +13 +13 1019.9 1008.4 +13.4 2
07 21.08 Ю 4 100 м н/о +14.7 +14.7 100 +13 +13 1020.4 1009.0
08 21.08 Ю 3 100 м н/о +14.7 +14.7 100 +14 +14 1020.6 1009.1
09 21.08 ЮВ 2 100 м н/о +14.9 +14.9 100 +14 +14 1020.7 1009.3
10 21.08 ЮВ 4 100 м н/о +15.2 +15.2 100 +14 +14 1020.5 1009.1
11 21.08 Ю 5 <100 м н/о +15.2 +15.2 100 +14 +14 1020.6 1009.1
12 21.08 Ю 6 <100 м н/о +15.2 +15.2 100 +14 +14 1020.6 1009.2 2
13 21.08 Ю 7 100 м н/о +15.4 +15.4 100 +14 +14 1020.5 1009.1
14 21.08 Ю 7 100 м н/о +15.6 +15.6 100 +14 +14 1020.2 1008.8
15 21.08 Ю 7 100 м н/о +15.4 +15.3 99 +14 +14 1020.1 1008.7
16 21.08 ЮЗ 7 100 м н/о +15.5 +15.5 100 +14 +14 1020.3 1008.9
17 21.08 Ю 5 100 м н/о +15.3 +15.3 100 +14 +14 1020.2 1008.8
18 21.08 Ю 6 100 м н/о +15.2 +15.2 100 +13 +13 1020.1 1008.7 +15.8 2
19 21.08 Ю 5 <100 м н/о +15.1 +15.0 99 +14 +14 1020.2 1008.8
20 21.08 Ю 6 100 м н/о +14.9 +14.9 100 +13 +13 1020.5 1009.1
21 21.08 Ю 7 100 м н/о +14.9 +14.9 100 +13 +13 1020.7 1009.2
22 21.08 Ю 6 300 м н/о +14.9 +14.9 100 +13 +13 1020.3 1008.9
23 21.08 Ю 6 7000 м н/о +14.8 +14.8 100 +13 +13 1020.3 1008.9
00 22.08 ЮЗ 5 5000 м н/о +14.9 +14.8 99 +13 +13 1020.2 1008.8
01 22.08 ЮЗ 4 3800 м н/о +14.7 +14.7 100 +13 +13 1020.2 1008.8
02 22.08 Ю 4 2800 м н/о +14.7 +14.7 100 +13 +13 1019.8 1008.4
03 22.08 Ю 3 5000 м н/о +14.8 +14.8 100 +14 +14 1019.4 1007.9
04 22.08 Ю 2 4700 м н/о +14.8 +14.8 100 +14 +14 1019.2 1007.8
05 22.08 ЮВ 2 300 м н/о +14.9 +14.9 100 +14 +14 1018.9 1007.5
06 22.08 В 4 300 м н/о +15.2 +15.2 100 +14 +14 1018.8 1007.4 +14.7
07 22.08 В 4 200 м н/о +15.4 +15.4 100 +14 +14 1018.8 1007.5
08 22.08 В 4 17 км н/о +16.1 +16.1 100 +15 +15 1018.3 1007.0
09 22.08 В 4 40 км н/о +16.8 +16.7 99 +16 +16 1018.3 1007.0
10 22.08 ЮВ 4 35 км н/о +16.3 +16.2 99 +15 +15 1018.1 1006.7
11 22.08 ЮВ 4 40 км н/о +17.6 +16.8 95 +17 +17 1017.8 1006.5
12 22.08 ЮВ 4 50 км н/о +18.2 +16.7 91 +18 +18 1017.0 1005.8
13 22.08 ЮВ 4 50 км н/о +19.8 +16.7 82 +22 +22 комфорт 1016.3 1005.1
14 22.08 ЮВ 5 50 км н/о +20.2 +16.2 78 +23 +23 комфорт 1015.7 1004.6
15 22.08 ЮВ 7 50 км н/о +20.9 +16.8 77 +24 +24 комфорт 1015.0 1003.9
16 22.08 ЮВ 9
{13}
50 км н/о +20.9 +16.8 77 +24 +24 комфорт 1014.3 1003.2
17 22.08 ЮВ 7-12
{13}
50 км н/о +20.4 +16.9 80 +23 +23 комфорт 1013.6 1002.5
18 22.08 ЮВ 6 50 км н/о +19.4 +16.5 83 +21 +21 комфорт 1013.0 1001.8 +21.0
19 22.08 ЮВ 6 50 км н/о +19.1 +16.5 85 +20 +20 1012.7 1001.6
20 22.08 ЮВ 7-13
{13}
50 км н/о +19.4 +16.6 84 +21 +21 комфорт 1012.4 1001.2
21 22.08 ЮВ 8-13
{13}
50 км н/о +19.5 +16.6 83 +21 +21 комфорт 1012.3 1001.1
22 22.08 ЮВ 10
{16}
50 км н/о +19.3 +16.6 84 +20 +20 1012.0 1000.8
23 22.08 Ю 8
{13}
35 км н/о +16.6 +15.9 96 +15 +15 1012.2 1000.9
00 23.08 Ю 9
{13}
100 м н/о +15.9 +15.8 99 +14 +14 1012.1 1000.8
01 23.08 ЮЗ 9 <100 м н/о +15.2 +15.2 100 +13 +13 1012.1 1000.7
02 23.08 ЮЗ 8 11 км н/о +14.2 +14.2 100 +12 +12 1012.0 1000.7
03 23.08 ЮЗ 8 8000 м н/о +14.1 +14.1 100 +11 +11 1011.9 1000.5
04 23.08 ЮЗ 7 12 км н/о +14.2 +14.2 100 +12 +12 1012.1 1000.7
05 23.08 ЮЗ 6 12 км н/о +13.7 +13.7 100 +11 +11 1012.3 1000.9
06 23.08 ЮЗ 4 11 км н/о +13.7 +13.7 100 +12 +12 1012.6 1001.3 +13.6 0.2
07 23.08 ЮЗ 6 9000 м н/о +14.1 +14.1 100 +12 +12 1012.8 1001.5
08 23.08 ЮЗ 7 30 км н/о +14.4 +14.0 97 +12 +12 1013.1 1001.8
09 23.08 ЮЗ 8 29 км н/о +14.5 +13.4 93 +12 +12 1013.5 1002.1
10 23.08 ЮЗ 8 25 км н/о +15.4 +14.0 91 +13 +13 1013.4 1002.1
11 23.08 ЮЗ 9 30 км н/о +16.5 +15.1 91 +15 +15 1013.5 1002.3
12 23.08 ЮЗ 9 30 км н/о +16.4 +14.8 90 +15 +15 1013.7 1002.4
13 23.08 ЮЗ 10
{14}
30 км н/о +15.6 +14.1 91 +13 +13 1013.8 1002.5
14 23.08 ЮЗ 11
{13}
30 км н/о +16.1 +13.9 87 +14 +14 1013.9 1002.6
15 23.08 ЮЗ 10
{14}
30 км н/о +16.3 +14.2 87 +14 +14 1013.8 1002.6
16 23.08 ЮЗ 11
{14}
30 км н/о +15.7 +13.7 88 +13 +13 1013.7 1002.4
17 23.08 ЮЗ 10
{15}
27 км н/о +15.0 +13.5 91 +13 +13 1013.8 1002.5
18 23.08 ЮЗ 11
{14}
26 км н/о +14.8 +13.7 93 +12 +12 1013.9 1002.6 +16.8
19 23.08 ЮЗ 10
{13}
23 км н/о +14.4 +13.5 94 +12 +12 1014.0 1002.7
21 23.08 ЮЗ 12
{14}
19 км н/о +14.1 +13.3 95 +11 +11 1014.1 1002.7
22 23.08 ЮЗ 12
{15}
22 км н/о +14.0 +13.2 95 +11 +11 1014.3 1002.9
23 23.08 ЮЗ 11
{15}
18 км н/о +14.0 +13.3 96 +11 +11 1014.3 1002.9
00 24.08 ЮЗ 8
{14}
16 км н/о +14.0 +13.6 97 +11 +11 1014.3 1002.9
02 24.08 ЮЗ 7 19 км н/о +14.1 +13.8 98 +12 +12 1014.3 1002.9
01 24.08 ЮЗ 7 19 км н/о +14.1 +13.8 98 +12 +12 1014.2 1002.8
03 24.08 ЮЗ 7 25 км н/о +13.9 +13.4 97 +12 +12 1014.5 1003.1

 

Местоположение метеостанции Aberdaron (Великобритания): широта 52.78 долгота -4.73 высота над уровнем моря 94 м.

В архиве по умолчанию представлена погода в Aberdaron за последнюю неделю. Архивные данные за месяц целиком и за предыдущие месяцы, начиная с января 2011 года, Вы можете получить, выбрав интересующий диапазон дат из раскрывающегося списка и нажав кнопку "Ввод!".

Внимание! Время в таблицах - всемирное. Для получения местного времени необходимо прибавить поправку, которая в Aberdaron равна 0 ч.

Смотрите также архив погоды в соседних городах и на ближайших метеорологических станциях:

Погода в Valley (Великобритания) (54 км)
Погода в Mona (Великобритания) (58 км)
Погода в Capel Curig (Великобритания) (64 км)
Погода в Trawsgoed (Великобритания) (71 км)
Погода в Aberporth (Великобритания) (73 км)
Погода в Bala (Великобритания) (79 км)
Погода в Lake Vyrnwy (Великобритания) (85 км)
Погода в Rhyl (Великобритания) (98 км)
Погода в Sennybridge (Великобритания) (109 км)
Погода в Pembrey Sands (Великобритания) (120 км)

Пояснения к столбцам:

Ветер - указаны скорость ветра в м/с - средняя за 10 мин, порывы в срок и между сроками (в фигурных скобках) и направление, откуда дует ветер: С - северный, СВ - северо-восточный, В - восточный, ЮВ - юго-восточный, Ю - южный, ЮЗ - юго-западный, З - западный, СЗ - северо-западный.
Видимость - горизонтальная дальность видимости в метрах или километрах. При видимости от 1 до 10 км при отсутствии осадков обычно наблюдается дымка, при ухудшении видимости до 1 км и менее - туман. В сухую погоду видимость может ухудшаться дымом, пылью или мглою.
Явления - указаны атмосферные явления, наблюдавшиеся в срок или в последний час перед сроком; фигурными скобками обозначены явления, наблюдавшиеся между сроками (за 1-3 часа до срока); квадратными скобками обозначены град или гололедные отложения с указанием их диаметра в мм.
Облачность - указаны через наклонную черту общая и нижняя облачность в баллах и высота нижней границы облаков в метрах; квадратными скобками обозначены формы облаков: Ci - перистые, Cs - перисто-слоистые, Cc - перисто-кучевые, Ac - высококучевые, As - высокослоистые, Sc - слоисто-кучевые, Ns - слоисто-дождевые, Cu - кучевые, Cb - кучево-дождевые. Подробнее классификацию облаков см. в Атласе облаков (PDF).
T - Температура воздуха - температура, измеренная на высоте 2 м над землей.
Td - Температура точки росы - температура, при понижении до которой содержащийся в воздухе водяной пар достигнет насыщения.
f - Относительная влажность воздуха - влажноcть воздуха, измеренная на высоте 2 м над землей.
Te - Эффективная температура - температура, которую ощущает одетый по сезону человек в тени. Характеристика душности погоды. При расчете учитывается влияние влажности воздуха и скорости ветра на теплоощущения человека.
Tes - Эффективная температура на солнце - температура, которую ощущает человек, с поправкой на солнечный нагрев. Характеристика знойности погоды. Зависит от высоты солнца над горизонтом, облачности и скорости ветра. Ночью, в пасмурную погоду, а также при ветре 12 м/с и более поправка равна нулю.
P - Атмосферное давление - приведенное к уровню моря атмосферное давление.
Po - Атмосферное давление - измеренное на уровне метеостанции атмосферное давление.
Tmin - Минимальная температура - минимум температуры воздуха на высоте 2 м над землей.
Tmax - Максимальная температура - максимум температуры воздуха на высоте 2 м над землей.
R - Количество осадков - Количество выпавших осадков за период времени, мм. При наведении курсора мыши на число - период времени, за который выпало указанное количество осадков.
R24 - Количество осадков - Количество выпавших осадков за 24 часа, мм.
S - Снежный покров - Высота снежного покрова, см. При наведении курсора мыши на число - состояние снежного покрова и степень покрытия местности в баллах.